Tracking 30143 objects as of 20-Jan-2025
HD Live streaming from Space Station
objects crossing your sky now

STARLINK-6245

Track STARLINK-6245 now!
10-day predictions
STARLINK-6245 is classified as:


NORAD ID: 57079
Int'l Code: 2023-088AH
Perigee: 565.3 km
Apogee: 567.1 km
Inclination: 43.0 °
Period: 95.8 minutes
Semi major axis: 6937 km
RCS: Unknown
Launch date: June 22, 2023
Source: United States (US)
Launch site: AIR FORCE WESTERN TEST RANGE (AFWTR)
Your satellite tracking list
Your tracking list is empty




NASA's NSSDC Master Catalog

Two Line Element Set (TLE):
1 57079U 23088AH  25020.50397739  .00001190  00000-0  10316-3 0  9996
2 57079  43.0025 179.7933 0001305 276.7099  83.3594 15.02539301 87457
Source of the keplerian elements: AFSPC